Location: Unspecified
(0.0000°N, 0.0000°E)
Time: 13:48:18
(UTC+00:00)

LightSail 2 - Pass Details

Date: 18 September 2019
Orbit: 699 x 732 km, 24.0° (Epoch: 17 September)

Event Time Altitude Azimuth Distance (km) Brightness Sun altitude
Exits shadow 04:04:25 21° 4° (N) 1,538 6.9 -27.5°
Drops below altitude 10° 04:06:57 10° 31° (NNE) 2,145 8.0 -26.8°
Sets 04:09:47 0° 44° (NE) 3,065 9.1 -26.1°
